Location: Unspecified
(35.6961°N, 0.0000°E)
Time: 20:56:38
(UTC+00:00)

Explorer 7 - All Passes

Search period start: 24 May 2019 00:00
Search period end: 03 June 2019 00:00
Orbit: 485 x 680 km, 50.3° (Epoch: 23 May)

Date Brightness Start Highest point End Pass type
(mag) Time Alt. Az. Time Alt. Az. Time Alt. Az.
24 May - 00:38:03 10° NNW 00:41:30 21° NNE 00:44:46 10° ENE visible
24 May - 02:18:13 10° NW 02:22:35 88° SSW 02:26:39 10° SE visible
24 May - 17:56:23 10° SSW 18:00:44 33° SE 18:05:05 10° ENE daylight
24 May - 19:36:35 10° WSW 19:41:17 45° NNW 19:45:54 10° NE visible
24 May - 21:19:48 10° NW 21:22:50 16° NNW 21:25:48 10° NNE visible
24 May - 23:02:43 10° NNW 23:05:01 13° N 23:07:15 10° NE visible
25 May - 00:42:56 10° NNW 00:46:51 28° NNE 00:50:33 10° E visible
25 May - 02:23:24 10° WNW 02:27:36 50° SW 02:31:32 10° SSE visible
25 May - 18:00:55 10° SSW 18:05:42 54° SE 18:10:28 10° ENE daylight
25 May - 19:42:09 10° W 19:46:32 32° NNW 19:50:49 10° NE visible
25 May - 21:25:45 10° NW 21:28:20 14° N 21:30:52 10° NNE visible
25 May - 23:07:47 10° NNW 23:10:32 15° NNE 23:13:11 10° NE visible
26 May - 00:47:51 10° NW 00:52:08 41° NNE 00:56:08 10° ESE visible
26 May - 02:28:50 10° WNW 02:32:32 28° SW 02:36:03 10° S night (unlit)
26 May - 16:28:13 10° SSE 16:30:39 14° SE 16:33:06 10° E daylight
26 May - 18:05:49 10° SW 18:10:45 88° SE 18:15:37 10° NE daylight
26 May - 19:47:54 10° WNW 19:51:52 24° NNW 19:55:45 10° NNE visible
26 May - 21:31:33 10° NNW 21:33:52 13° N 21:36:09 10° NNE visible
26 May - 23:12:44 10° NNW 23:16:00 19° NNE 23:19:08 10° ENE visible
27 May - 00:52:50 10° NW 00:57:19 66° NE 01:01:29 10° ESE visible
27 May - 02:34:44 10° W 02:37:23 16° SW 02:39:56 10° SSW night (unlit)
27 May - 16:31:39 10° S 16:35:30 23° SE 16:39:23 10° ENE daylight
27 May - 18:11:00 10° WSW 18:15:51 60° NW 18:20:41 10° NE daylight
27 May - 19:53:47 10° WNW 19:57:16 19° NNW 20:00:41 10° NNE visible
27 May - 21:37:04 10° NNW 21:39:25 13° N 21:41:42 10° NNE visible
27 May - 23:17:38 10° NNW 23:21:24 24° NNE 23:24:59 10° ENE visible
28 May - 00:57:55 10° NW 01:02:24 74° SW 01:06:35 10° SE visible
28 May - 16:35:53 10° SSW 16:40:25 39° SE 16:44:58 10° ENE daylight
28 May - 18:16:26 10° WSW 18:21:04 40° NNW 18:25:39 10° NE daylight
28 May - 19:59:44 10° NW 20:02:44 16° NNW 20:05:40 10° NNE visible
28 May - 21:42:18 10° NNW 21:44:57 15° N 21:47:31 10° NE visible
28 May - 23:22:32 10° NW 23:26:44 33° NNE 23:30:41 10° E visible
29 May - 01:03:10 10° WNW 01:07:24 42° SW 01:11:21 10° SSE visible
29 May - 16:40:34 10° SW 16:45:24 64° SE 16:50:16 10° NE daylight
29 May - 18:22:03 10° W 18:26:20 29° NNW 18:30:34 10° NE daylight
29 May - 20:05:37 10° NW 20:08:14 14° N 20:10:49 10° NNE visible
29 May - 21:47:21 10° NNW 21:50:26 17° NNE 21:53:26 10° NE visible
29 May - 23:27:28 10° NW 23:31:58 49° NE 23:36:11 10° ESE visible
30 May - 01:08:42 10° WNW 01:12:17 24° SW 01:15:42 10° S visible
30 May - 15:07:18 10° SSE 15:10:19 16° SE 15:13:21 10° E daylight
30 May - 16:45:34 10° SW 16:50:27 80° NW 16:55:23 10° NE daylight
30 May - 18:27:51 10° WNW 18:31:41 22° NNW 18:35:30 10° NNE daylight
30 May - 20:11:19 10° NNW 20:13:46 14° N 20:16:12 10° NNE visible
30 May - 21:52:18 10° NNW 21:55:53 21° NNE 21:59:20 10° ENE visible
30 May - 23:32:29 10° NW 23:37:08 79° NE 23:41:27 10° SE visible
31 May - 01:14:51 10° W 01:17:07 14° SW 01:19:18 10° SSW night (unlit)
31 May - 15:11:05 10° S 15:15:09 28° SE 15:19:18 10° ENE daylight
31 May - 16:50:49 10° WSW 16:55:36 52° NW 17:00:24 10° NE daylight
31 May - 18:33:45 10° WNW 18:37:07 18° NNW 18:40:28 10° NNE daylight
31 May - 20:16:45 10° NNW 20:19:19 14° N 20:21:52 10° NE visible
31 May - 21:57:13 10° NNW 22:01:16 27° NNE 22:05:08 10° E visible
31 May - 23:37:37 10° NW 23:42:11 62° SW 23:46:27 10° SE visible
01 Jun - 15:15:29 10° SSW 15:20:05 46° SE 15:24:47 10° ENE daylight
01 Jun - 16:56:19 10° W 17:00:49 36° NNW 17:05:22 10° NE daylight
01 Jun - 18:39:40 10° NW 18:42:36 16° N 18:45:31 10° NNE daylight
01 Jun - 20:21:55 10° NNW 20:24:51 16° N 20:27:42 10° NE visible
01 Jun - 22:02:08 10° NW 22:06:34 38° NNE 22:10:46 10° E visible
01 Jun - 23:42:56 10° WNW 23:47:09 36° SW 23:51:07 10° SSE visible
02 Jun - 13:43:54 10° SE 13:45:09 11° ESE 13:46:24 10° ESE daylight
02 Jun - 15:20:16 10° SW 15:25:04 76° SE 15:30:01 10° NE daylight
02 Jun - 17:02:00 10° W 17:06:08 26° NNW 17:10:17 10° NNE daylight
02 Jun - 18:45:29 10° NW 18:48:08 14° N 18:50:44 10° NNE daylight
02 Jun - 20:26:57 10° NNW 20:30:20 19° NNE 20:33:37 10° ENE visible
02 Jun - 22:07:05 10° NW 22:11:47 58° NE 22:16:11 10° ESE visible
02 Jun - 23:48:34 10° W 23:52:00 21° SW 23:55:18 10° S visible
